[[{"header":{"parameterUnit":"m.s-1","parameterCategory":1,"la1":30.2991,"la2":30.254,"lo1":-89.0895,"lo2":-89.0444,"dy":0.0017,"dx":0.0017,"nx":28,"ny":28,"refTime":"2025-04-13T03:00:00:Z","depth":0,"parameterNumber":2,"parameterNumberName":"U-component_of_WINDS"},"data":[0,0,0,0,0,0,0,0,0,0,0,0,0,0,0,0,0,0,0,0,0,0,0,0,0,0,0,0,0,0,0,0,0,0,0,0,0,0,0,0,0,0,0,0,0,0,0,0,0,0,0,0,0,0,0,0,0,0,1.1423,1.1422,0,1.1419,1.1419,1.1419,1.1355,1.1353,1.1352,1.135,1.135,1.1351,1.1353,0,0,0,0,0,0,0,0,0,0,0,0,0,1.1375,1.1376,1.1423,1.1422,1.1422,1.1419,1.1419,1.1419,1.1355,1.1353,1.1351,1.1349,1.1349,1.1351,1.1353,0,0,0,0,0,0,0,0,0,0,0,0,0,1.1386,1.1377,1.1423,1.139,1.1387,1.1419,1.1419,1.1419,1.1356,1.1353,1.1351,1.1348,1.1348,1.1351,1.1353,1.1416,0,0,1.136,1.1361,0,0,0,0,0,0,0,0,1.1386,1.1388,1.1395,1.1393,1.1389,1.1385,1.1402,1.1418,1.1356,1.1368,1.135,1.1347,1.1363,1.1364,1.1369,1.1416,1.1416,1.136,1.1361,1.1362,1.1363,0,0,0,0,0,0,0,1.1385,1.1388,1.1421,1.1395,1.1392,1.1376,1.1375,1.1404,1.138,1.1367,1.1362,1.1362,1.1361,1.1367,1.1369,1.1416,1.136,1.1362,1.1363,1.1364,1.1511,1.1513,0,0,0,0,0,0,1.1388,1.1388,1.1421,1.1421,1.1381,1.1379,1.1378,1.1389,1.1379,1.1375,1.1364,1.1359,1.1364,1.1366,1.1368,1.1439,1.1362,1.1365,1.1366,1.1508,1.1512,1.1514,0,0,0,0,0,0,1.1388,1.1392,1.1421,1.1403,1.1405,1.1382,1.1395,1.139,1.1395,1.1377,1.1373,1.1375,1.1363,1.1365,1.1404,1.1439,1.1366,1.1368,1.1505,1.1509,1.1513,1.1584,0,0,0,0,0,0,1.1387,1.1392,1.1416,1.1404,1.1407,1.1457,1.1398,1.1392,1.1399,1.1393,1.1386,1.1382,1.1361,1.1401,1.1406,1.144,1.1369,1.1502,1.1507,1.1512,1.1578,1.159,1.1599,0,0,0,0,0,1.1385,1.1438,1.1418,1.1422,1.1436,1.1459,1.1461,1.1434,1.1402,1.1426,1.1413,1.1383,1.1434,1.1405,1.1411,1.1446,1.15,1.1506,1.1511,1.1574,1.1587,1.1599,0,0,0,0,0,0,1.1457,1.1436,1.1413,1.1463,1.1463,1.1448,1.1478,1.145,1.146,1.1454,1.1421,1.142,1.1463,1.1458,1.1427,1.1505,1.1461,1.1468,1.1507,1.152,1.153,1.153,1.1371,0,0,0,0,0,1.1478,1.1498,1.1479,1.1525,1.1526,1.1502,1.1511,1.149,1.1489,1.1489,1.1479,1.148,1.1496,1.1508,1.1522,1.1577,1.1574,1.1604,1.1614,1.1623,1.163,1.1656,1.1669,1.1533,1.1533,1.1533,0,0,1.1523,1.1514,1.1529,1.1539,1.1536,1.1557,1.1502,1.1528,1.1543,1.1493,1.1528,1.1521,1.1519,1.1566,1.1586,1.1564,1.1666,1.163,1.1638,1.1639,1.1663,1.1676,1.1688,1.1537,1.1536,1.1536,0,0,1.1616,1.1611,1.1648,1.1645,1.1641,1.1624,1.1633,1.1621,1.1614,1.1648,1.161,1.1628,1.1657,1.1656,1.166,1.1748,1.1719,1.1753,1.1808,1.1834,1.1845,1.1854,1.1884,1.1896,1.176,1.176,1.176,0,1.1673,1.1702,1.167,1.1697,1.1702,1.1655,1.1691,1.1691,1.1692,1.1696,1.1671,1.1703,1.17,1.1744,1.1765,1.177,1.1778,1.1754,1.1846,1.1855,1.1863,1.1891,1.1903,1.1764,1.1764,1.1763,1.1763,0,1.1771,1.1792,1.1822,1.1822,1.183,1.1861,1.1834,1.1846,1.1823,1.1809,1.1843,1.1836,1.1846,1.1855,1.1834,1.1896,1.1881,1.1852,1.1807,1.1881,1.1907,1.1917,1.177,1.1768,1.1767,1.1766,0,0,1.1911,1.189,1.1901,1.1899,1.1889,1.1905,1.1934,1.1942,1.1952,1.1953,1.1976,1.1999,1.197,1.1974,1.1953,1.1976,1.2044,1.1943,1.1942,1.1961,1.2109,1.2131,1.2144,1.2024,1.2026,1.2028,1.2108,0,1.1999,1.2046,1.2016,1.2067,1.2085,1.2039,1.2064,1.206,1.2047,1.206,1.2045,1.2062,1.2023,1.2025,1.2045,1.2031,1.2073,1.2025,1.2044,1.2046,1.2046,1.2158,1.2182,1.2259,1.2118,1.212,1.2121,0,1.2109,1.2112,1.2165,1.2148,1.2154,1.2177,1.218,1.2193,1.2188,1.2176,1.2179,1.215,1.2176,1.2132,1.2166,1.2134,1.214,1.2134,1.2136,1.2137,1.2088,1.2161,1.2283,1.2294,1.2137,1.2136,1.2135,0,1.2204,1.2222,1.2255,1.2254,1.2236,1.2253,1.2246,1.2238,1.2243,1.2246,1.2249,1.2257,1.226,1.2266,1.224,1.221,1.2278,1.2231,1.2268,1.2269,1.2285,1.2285,1.2409,1.229,1.229,1.229,1.2289,0,1.2305,1.2339,1.2296,1.2317,1.2352,1.2317,1.2354,1.2342,1.2334,1.2351,1.2312,1.2329,1.2294,1.2307,1.2287,1.2317,1.232,1.2311,1.2305,1.2314,1.2315,1.2318,1.2312,1.2293,1.2292,1.2291,1.2291,0,1.2418,1.2391,1.2424,1.2402,1.2398,1.2425,1.2406,1.2424,1.2406,1.2428,1.2431,1.2404,1.2417,1.2391,1.2402,1.2388,1.2431,1.2417,1.2432,1.2428,1.2466,1.2463,1.2597,1.2612,1.2484,1.2485,1.2486,0,1.2485,1.2509,1.2489,1.2496,1.2491,1.2504,1.2509,1.2475,1.2481,1.2474,1.2492,1.2501,1.2507,1.253,1.2511,1.2518,1.2504,1.255,1.2505,1.2512,1.2503,1.2502,1.2503,1.256,1.2561,1.2563,1.2564,0,1.2605,1.2589,1.2597,1.2599,1.2604,1.2605,1.2603,1.2611,1.2575,1.2584,1.2595,1.2599,1.2607,1.2617,1.2619,1.2612,1.2582,1.2578,1.2586,1.2596,1.2603,1.2599,1.2457,1.2575,1.2574,1.2573,1.2572,1.2572,1.2696,1.2714,1.2701,1.271,1.2704,1.2702,1.2716,1.2699,1.2708,1.2711,1.269,1.2705,1.2696,1.2695,1.2691,1.2703,1.2682,1.2695,1.2699,1.2702,1.2708,1.2601,1.2703,1.2703,1.2703,1.2702,1.2702,0,1.2813,1.2801,1.281,1.2806,1.2812,1.2781,1.2776,1.2784,1.2797,1.279,1.2795,1.2807,1.2815,1.2796,1.2801,1.2814,1.28,1.2816,1.2815,1.2813,1.2727,1.2718,1.2827,1.2827,1.2827,1.2827,1.2827,1.2827,1.2874,1.2902,1.2885,1.2909,1.2898,1.2911,1.2911,1.2908,1.2902,1.2916,1.2922,1.2908,1.2896,1.2899,1.2905,1.2899,1.2902,1.2923,1.2913,1.2832,1.282,1.2808,1.28,1.2924,1.2924,1.2998,1.2999,1.2999]},{"header":{"parameterUnit":"m.s-1","parameterCategory":1,"la1":30.2991,"la2":30.254,"lo1":-89.0895,"lo2":-89.0444,"dy":0.0017,"dx":0.0017,"nx":28,"ny":28,"refTime":"2025-04-13T03:00:00:Z","depth":0,"parameterNumber":3,"parameterNumberName":"V-component_of_WINDS"},"data":[0,0,0,0,0,0,0,0,0,0,0,0,0,0,0,0,0,0,0,0,0,0,0,0,0,0,0,0,0,0,0,0,0,0,0,0,0,0,0,0,0,0,0,0,0,0,0,0,0,0,0,0,0,0,0,0,0,0,5.0875,5.0876,0,5.0948,5.0949,5.095,5.0898,5.0896,5.0894,5.0891,5.096,5.0964,5.0968,0,0,0,0,0,0,0,0,0,0,0,0,0,5.0684,5.0688,5.0875,5.0876,5.0877,5.0948,5.0949,5.095,5.0899,5.0896,5.0893,5.089,5.0959,5.0964,5.0968,0,0,0,0,0,0,0,0,0,0,0,0,0,5.0763,5.0689,5.0875,5.086,5.0859,5.0948,5.0949,5.095,5.0899,5.0896,5.0892,5.0889,5.0957,5.0963,5.0969,5.1074,0,0,5.0987,5.099,0,0,0,0,0,0,0,0,5.0759,5.077,5.0861,5.0861,5.0861,5.0911,5.0907,5.0991,5.09,5.0884,5.0891,5.0887,5.0946,5.0953,5.0974,5.1077,5.108,5.0988,5.0991,5.0994,5.0995,0,0,0,0,0,0,0,5.0753,5.0767,5.0904,5.0862,5.0862,5.0847,5.0855,5.0923,5.0933,5.0885,5.0881,5.0891,5.0945,5.0968,5.0975,5.1081,5.0987,5.0993,5.0996,5.0999,5.1272,5.1275,0,0,0,0,0,0,5.075,5.0762,5.0901,5.0906,5.08,5.0854,5.0862,5.0898,5.0932,5.0934,5.0894,5.0888,5.096,5.0968,5.0977,5.11,5.0994,5.0999,5.1003,5.1268,5.1273,5.1277,0,0,0,0,0,0,5.0746,5.0763,5.0898,5.0833,5.0849,5.0861,5.0901,5.0901,5.0924,5.0939,5.094,5.0916,5.0957,5.0969,5.105,5.1102,5.1002,5.1007,5.1264,5.127,5.1275,5.1349,0,0,0,0,0,0,5.0741,5.0762,5.0804,5.0835,5.0853,5.0972,5.0905,5.0905,5.0935,5.0929,5.096,5.0962,5.0955,5.1042,5.1056,5.1108,5.1012,5.1259,5.1266,5.1273,5.1342,5.1357,5.1369,0,0,0,0,0,5.0734,5.0821,5.0806,5.0823,5.0906,5.0976,5.0986,5.0979,5.094,5.098,5.099,5.0961,5.1095,5.105,5.1066,5.1121,5.1256,5.1264,5.1272,5.1336,5.1354,5.1369,0,0,0,0,0,0,5.0793,5.0824,5.0808,5.0908,5.094,5.0967,5.1018,5.0998,5.104,5.1032,5.1019,5.1026,5.1111,5.1125,5.1075,5.1223,5.1169,5.1181,5.1212,5.1229,5.1242,5.1236,5.1017,0,0,0,0,0,5.0818,5.0875,5.0898,5.0983,5.1,5.1007,5.1037,5.1029,5.106,5.1073,5.1088,5.1118,5.1166,5.1198,5.1244,5.1344,5.1349,5.139,5.1403,5.1414,5.1424,5.1475,5.1493,5.1304,5.1304,5.1304,0,0,5.0869,5.0894,5.0929,5.0996,5.1019,5.1075,5.1018,5.108,5.1121,5.1081,5.1159,5.1172,5.1204,5.1295,5.1335,5.1308,5.1478,5.1425,5.1434,5.1437,5.1486,5.1504,5.152,5.131,5.1309,5.1308,0,0,5.0991,5.1016,5.1089,5.1115,5.1152,5.1155,5.1173,5.1204,5.1211,5.1289,5.126,5.1307,5.1392,5.1416,5.1439,5.157,5.1543,5.1585,5.1654,5.1704,5.1719,5.1732,5.1776,5.1793,5.1595,5.1595,5.1595,0,5.1049,5.1135,5.1129,5.1193,5.1222,5.1191,5.1263,5.1287,5.1337,5.1356,5.1326,5.1431,5.1451,5.1545,5.1577,5.1598,5.1615,5.158,5.1718,5.1731,5.1743,5.1785,5.1802,5.1599,5.1599,5.1599,5.1598,0,5.1203,5.1263,5.1317,5.1368,5.1403,5.1471,5.1473,5.1509,5.1498,5.1504,5.1582,5.1605,5.1654,5.1677,5.1666,5.177,5.1751,5.172,5.1664,5.1766,5.1805,5.1821,5.1606,5.1604,5.1603,5.1602,0,0,5.1363,5.141,5.1429,5.1451,5.149,5.1534,5.16,5.165,5.168,5.1715,5.1768,5.184,5.1811,5.1838,5.1829,5.1874,5.1973,5.1837,5.1837,5.1859,5.2086,5.2107,5.2126,5.1957,5.196,5.1963,5.2082,0,5.1484,5.1601,5.1597,5.1705,5.1758,5.173,5.1787,5.1815,5.1823,5.1867,5.1875,5.1926,5.1885,5.19,5.1944,5.1952,5.2018,5.1944,5.2003,5.2005,5.1994,5.2147,5.217,5.2282,5.2098,5.21,5.2102,0,5.1642,5.1684,5.1798,5.1828,5.185,5.1901,5.1946,5.199,5.2021,5.2023,5.2053,5.2037,5.2101,5.2046,5.2132,5.2081,5.2106,5.2113,5.2118,5.2121,5.2058,5.2152,5.2317,5.2333,5.2127,5.2125,5.2123,0,5.1743,5.1829,5.1907,5.1927,5.1965,5.2001,5.2018,5.2046,5.2076,5.2114,5.2133,5.2178,5.2202,5.2236,5.2231,5.2192,5.2318,5.2263,5.2319,5.2319,5.2345,5.2343,5.2515,5.2365,5.2365,5.2365,5.2364,0,5.1878,5.1948,5.1953,5.2001,5.2078,5.2072,5.2147,5.216,5.2185,5.2233,5.2211,5.2256,5.225,5.2294,5.2291,5.2362,5.2373,5.2375,5.2373,5.2375,5.2375,5.2389,5.238,5.2369,5.2368,5.2367,5.2367,0,5.2004,5.201,5.2093,5.2123,5.2132,5.2187,5.221,5.2255,5.2261,5.2322,5.2336,5.2344,5.2396,5.2396,5.2454,5.2452,5.2537,5.2528,5.2527,5.2524,5.258,5.2574,5.2764,5.2788,5.2626,5.2627,5.2629,0,5.2088,5.2141,5.2177,5.2208,5.2228,5.2279,5.231,5.2306,5.2338,5.2378,5.2417,5.2467,5.2506,5.2589,5.2598,5.2642,5.2632,5.2696,5.2638,5.2639,5.263,5.2626,5.263,5.2706,5.2708,5.2709,5.2711,0,5.2236,5.2237,5.2283,5.2331,5.2368,5.2405,5.2438,5.2465,5.2465,5.2502,5.2555,5.2586,5.2646,5.2694,5.2737,5.2751,5.273,5.2729,5.2744,5.2746,5.2742,5.2742,5.2555,5.2724,5.2723,5.2722,5.2721,5.272,5.2341,5.2387,5.2419,5.2471,5.2496,5.2528,5.2571,5.2583,5.2628,5.2678,5.2673,5.2731,5.2759,5.2814,5.2833,5.2877,5.2854,5.2876,5.2881,5.2886,5.2891,5.2738,5.2885,5.2884,5.2884,5.2884,5.2883,0,5.2486,5.2506,5.2554,5.2602,5.2643,5.2622,5.2658,5.2692,5.2745,5.2774,5.2814,5.2874,5.2921,5.2935,5.298,5.3012,5.3004,5.3024,5.302,5.3023,5.291,5.2892,5.303,5.303,5.303,5.303,5.303,5.303,5.2566,5.2641,5.2646,5.2732,5.275,5.2809,5.2831,5.286,5.2883,5.2952,5.2992,5.3002,5.3024,5.307,5.3112,5.3114,5.3131,5.3155,5.3153,5.3046,5.3032,5.3017,5.3,5.3159,5.3159,5.3262,5.3263,5.3264]}]]